Weather in Konstantinovka

Ukraine / Kherson District     46°49′41″N   33°51′55″E
temp.,
°C
wind,
m/s
gust,
m/s
humid.,
%
clouds,
%
prec.,
mm/h
press.,
hPa
HPBL,
m
24 january, mon
mon2423:00−3n81384100 0.2 1021752
02:00−3n81379100 0.2 1021643
05:00−4n81392100 0.6 1020763
08:00−4n81394100 2.6 1021691
11:00−4nne81188100 1.1 1022662
14:00−3nne6991100 1.8 1021615
17:00−3n61096100 0.8 1022570
20:00−3nne5994100 1.6 1022426
25 january, tue
tue2523:00−4nne5893100 0.3 1023372
02:00−5nne4795100 0.6 1024347
05:00−5n3695100 0.5 1023382
08:00−5n359498 1.3 1024394
11:00−4n3390100 0.3 1024488
14:00−4nnw3385100 0.6 1023516
17:00−6nnw229686 0.1 102226
20:00−6nw129790 0.2 102223
26 january, wed
wed2623:00−7nw1197100 0.2 102222
02:00−8wnw229780 0.3 102124
05:00−10w119785 0.0 102010
08:00−10ssw119880 0.0 102013
11:00−5sw118395 0.0 1020265
14:00−3wnw117844 0.0 1019420
17:00−8nne22906 0.0 102010
20:00−10ne22955 0.0 102211
27 january, thu
thu2723:00−11nne229745 0.0 102211
02:00−10nnw229650 0.0 102215
05:00−10nnw229531 0.0 102212
08:00−9nw2295100 0.0 102331
11:00−5wnw2387100 0.0 1022301
14:00−4w458290 0.0 1021526
17:00−8sw339283 0.0 102134
20:00−8ssw369395 0.0 102077
28 january, fri
fri2823:00−3ssw41097100 0.3 1019281
02:00−2sw41096100 0.5 1018294
05:00−2sw51096100 0.0 1017255
08:000ssw5129487 0.4 1017422
11:00+2sw61395100 0.0 1016507
14:00+3sw61292100 0.0 1014546
17:00+1wsw61198100 0.1 1014410
20:00+1sw51190100 0.1 1015231